Location: Arborea
(39.7744°N, 8.5819°E)
Time: 06:23:49
(UTC+00:00)

Cosmos 2322 - Pass Details

Date: 02 June 2022
Orbit: 840 x 855 km, 71.0° (Epoch: 03 July)

Event Time Altitude Azimuth Distance (km) Brightness Sun altitude
Exits shadow 22:31:17 13° 248° (WSW) 2,295 5.9 -26.7°
Maximum altitude 22:35:34 29° 303° (WNW) 1,530 5.4 -26.9°
Drops below altitude 10° 22:40:29 10° 3° (N) 2,494 7.1 -27.1°
Sets 22:43:18 0° 14° (NNE) 3,433 7.9 -27.2°
